FENGYUN 1C DEB, 29887

Orbit data source: Space-Track

FENGYUN 1C DEB, 29887 is space debris in SSO originally from a launch on Mon, 10 May 1999 UTC launched from the Taiyaun Space Center, China (TSC). Fengyun 1C debris stems from the Chinese weather satellite Fengyun-1C, which was intentionally destroyed by a Chinese anti-satellite missile in 2007. This event dramatically increased the amount of space debris, with thousands of trackable fragments posing hazards to satellites and human spaceflight. The Fengyun 1C debris cloud has become a focal point in discussions about space sustainability and the need for international regulations to prevent the creation of new debris.

Loading next visibility...
Identifier
29887, 1999-025GH
Orbit
SSO
Country
Flag of CNCN / PRC
Related business
Manufacturer
Unknown
Mission
Spacecraft
Bus & Motor
Unknown
Mass
Unknown
Launch date (UTC)
1999-05-10 (27 years ago)
Launch vehicle
Unknown
Launch site
Taiyaun Space Center, China (TSC)
Object type
Payload
Rocket body
Debris
Shape & HBR
Unknown shape, 0.1 m
Radar Cross Section
Medium (>0.1 m² and <1 m²)

Expand to show TLE details & history
Last TLE update: 1 day ago

TLE from 1 day ago
0 FENGYUN 1C DEB
1 29887U 99025GH  26257.20649017  .00001328  00000-0  30981-3 0  9998
2 29887  98.7049 346.4395 0281323 264.8440 121.8783 14.35202898 19231
Epoch: 2026-09-14T04:57Z
TLE epoch observation values (Epoch: 2026-09-14T04:57:20.750Z)
Latitude
29.08428°
Longitude
-85.94692°
Altitude
888.29 km
Speed
7.353 km/s
True Right ascension
22h 46m 19s
True Declination
28° 56' 28"
Sunlit
Object was in full shadow at epoch
Visualization orbit readout
Latitude
Unknown
Longitude
Unknown
Altitude
Unknown
Speed
Unknown
Apparent Right ascension
Unknown
Apparent Declination
Unknown
Sunlit
N/A
Visualization observer readout
Local Sidereal Time
02:58:20
Azimuth
Unknown
Elevation
Unknown
Doppler factor
Unknown
Orbital elements
Apogee altitude
972.663 km
Perigee altitude
570.39 km
Semi-major axis
7,149.664 km
Eccentricity
0.02813
Inclination
98.7049°
RAAN
346.4395°
Arg. of periapsis
264.844°
True anomaly
124.56487°
Mean anomaly
121.8783°
Eccentric anomaly
123.22664°
Mean motion
3.59017 °/min
Orbital period
100.27 mins
BSTAR
0.00030981
Loading maneuver chart data...
Computing Atmospheric mass density...
Loading historical data...
Loading historical data...
Loading historical data...
Loading historical data...
Loading historical data...
Loading historical data...
Loading historical data...

Documentation

Showing up to 5 results
|